Regional Weather Roundup
Issued by NWS Newport/Morehead, NC

Current Version | Previous Version | Graphics & Text | Print | Product List | Glossary Off
Versions: 1 2 3 4 5 6 7 8 9 10 11 12 13 14 15 16 17 18 19 20 21 22 23 24 25 26 27 28 29 30 31 32 33 34 35 36 37 38 39 40 41 42 43 44 45 46 47 48 49 50

000
ASUS42 KMHX 200714
RWRMHX
WEATHER ROUNDUP FOR EASTERN NORTH CAROLINA
NATIONAL WEATHER SERVICE NEWPORT/MOREHEAD CITY NC
300 AM EDT SUN AUG 20 2017

NOTE: "FAIR" INDICATES FEW OR NO CLOUDS BELOW 12,000 FEET
WITH NO SIGNIFICANT WEATHER AND/OR OBSTRUCTIONS TO VISIBILITY

NCZ015>017-031-032-045>047-102-103-200800-
NORTH COAST

CITY           SKY/WX    TMP DP  RH WIND       PRES   REMARKS
EDENTON        CLEAR     78  74  88 CALM      30.00S
ELIZABETH CITY CLEAR     74  74 100 CALM      29.99S
KITTY HAWK     SUNNY     76  75  96 CALM      29.98S
MANTEO         PTCLDY    77  74  92 W6        30.00S

$$

NCZ045>047-081-094-103-104-200800-
CENTRAL COAST

CITY           SKY/WX    TMP DP  RH WIND       PRES   REMARKS
FRISCO         CLEAR     79  77  94 W5        29.99F

$$

NCZ095-097-098-100-101-200800-
SOUTHERN COAST

CITY           SKY/WX    TMP DP  RH WIND       PRES   REMARKS
BEAUFORT       PTCLDY    76  76 100 CALM      29.99F
CEDAR ISLAND   NOT AVBL
JACKSONVILLE   CLEAR     74  74 100 CALM      29.98F
PINEY ISLAND   PTSUNNY  N/A N/A N/A W3        29.99F
WILMINGTON     PTCLDY    76  76 100 CALM      29.99S


$$

NCZ011>013-027>030-043-044-078>080-089-090>093-098-200800-
COASTAL PLAIN

CITY           SKY/WX    TMP DP  RH WIND       PRES   REMARKS
AHOSKIE        FOG       71  71  99 CALM      30.00S VSB 3/4
CLINTON        PTCLDY    73  73 100 CALM      30.01R
ELIZABETHTOWN  NOT AVBL
GOLDSBORO      CLEAR     73  73 100 SW2       29.99F
GREENVILLE     CLEAR     72  72 100 CALM      30.02S FOG
HAVELOCK       PTCLDY    74  73  97 W3        30.00F
KENANSVILLE    MOCLDY    72  70  94 CALM      30.00S FOG
KINSTON        PTCLDY    71  71  99 CALM      30.01S FOG
NEW BERN       CLOUDY    73  73 100 CALM      30.01S FOG
RICHLANDS      MOCLDY    73  72  96 CALM      30.00S
ROCKY MOUNT    PTCLDY    72  72 100 CALM      30.00S FOG
WASHINGTON     CLEAR     73  72  97 SW3       30.00F
WHITEVILLE     CLOUDY    75  74  97 CALM      29.99S

$$

AMZ130-135-150-152-154-156-158-170-250-252-270-ANZ085-086-088-633-658-670-200800-
MARINE OBSERVATIONS

STATION/POSITION TIME  TEMP    WIND        PRES    WAVE   SWELL
                       AIR SEA DIR/SP/G            HT/PER HT/PER
                 (UTC) (F)     (DEG/KT/KT) (MB)    (FT/S) (FT/S)
CHESAPEAKE LIGHT NOT AVBL
64 E VA BEACH    0650   79 78  260/  6/  6 1015.7    2/ 9   2/ 9
DUCK             0648      71  240/  8/  9 1015.2
2 E DUCK         0630      77                N/A     1/ 9
OREGON INLET     0636      78  240/  6/ 10 1015.4
13E OREGON INLT  0648      79                N/A     2/ 6   2/ 6
HATTERAS CG      0648      79  240/  5/  6 1015.4
DIAMOND BUOY     0650   83 83  260/  8/ 10 1015.3    3/ 9   3/ 9
CAPE LOOKOUT     0700   81     240/  3/  3 1015.5
BEAUFORT LAB     0648      82   CALM  /  2 1014.7
30 SE NEW RVR IN 0608   81 83  240/ 10/ 14 1015.9
30 SE NEW RVR IN 0643      83                N/A     3/ 5
27 SE WRIGHTSVLE 0608   83 84  220/ 12/ 17 1015.7
5 SE WRIGHTSVLE  0608   83 83  220/ 14/ 19 1015.4
225 S CAPE HAT   0650   83 84  190/ 12/ 14 1017.2    4/ 8   3/ 8
41 SE CHARLESTON 0700   84 84  220/ 10/ 12 1015.7

$$



USA.gov is the U.S. government's official web portal to all federal, state and local government web resources and services.